Location: Unspecified
(38.0989°N, 0.6729°W)
Time: 08:57:16
(UTC+02:00)

OTV 5 (USA 277) - Visible Passes

Search period start: 19 June 2018 00:00
Search period end: 29 June 2018 00:00
Orbit: 313 x 320 km, 54.5° (Epoch: 18 June)

Date Brightness Start Highest point End Pass type
(mag) Time Alt. Az. Time Alt. Az. Time Alt. Az.
19 Jun ? 05:13:50 10° NW 05:16:33 86° SW 05:19:15 10° SE visible
20 Jun ? 03:54:32 10° NNW 03:56:36 19° NE 03:58:39 10° E visible
20 Jun ? 05:28:37 10° WNW 05:30:53 24° SW 05:33:10 10° S visible
21 Jun ? 22:03:13 10° NW 22:04:16 12° NNW 22:05:20 10° N visible
27 Jun ? 00:53:26 10° N 00:53:45 11° N 00:53:45 11° N visible
28 Jun ? 01:07:05 10° NNW 01:07:14 11° NNW 01:07:14 11° NNW visible
